Weather in Houma

United States     29°35′53″N   90°42′58″W
temp.,
°C
wind,
m/s
gust,
m/s
humid.,
%
clouds,
%
prec.,
mm/h
press.,
hPa
HPBL,
m
7 may, fri
fri701:00+17nne36730 0.0 102090
04:00+16nne22750 0.0 101915
07:00+16n34760 0.0 102186
10:00+23n45590 0.0 1022518
13:00+27n34455 0.0 10211256
16:00+28n45402 0.0 10191627
19:00+24nne236316 0.0 101959
22:00+19ene2363100 0.0 101938
8 may, sat
sat801:00+18e346962 0.0 101972
04:00+17e347587 0.0 101955
07:00+18e357887 0.0 102094
10:00+25se445354 0.0 10201126
13:00+27sse564614 0.0 10191325
16:00+26sse66480 0.0 10171172
19:00+23sse59660 0.0 1017523
22:00+20sse410760 0.0 1017250
9 may, sun
sun901:00+21sse410790 0.0 1016307
04:00+20s39830 0.0 1015206
07:00+21sse3108414 0.0 1015317
10:00+27s785983 0.0 10151228
13:00+29s68535 0.0 10151468
16:00+29s675915 0.0 10141528
19:00+25sse488196 0.1 1013377
22:00+24s4118678 0.1 1013462
10 may, mon
mon1001:00+24s41189100 0.1 1013525
04:00+23ssw3894100 0.1 1013279
07:00+23s399572 0.6 1014367
10:00+29ssw676432 0.0 10141180
13:00+31ssw67527 0.0 10141708
16:00+32sw555217 0.1 10131857
19:00+27ssw4669100 0.1 1014265
22:00+24s35916 0.0 1015101
11 may, tue
tue1101:00+23sse2296100 0.0 101529
04:00+23ese1196100 0.1 101511
07:00+23ene2395100 0.5 101777
10:00+26e2380100 0.8 1018526
13:00+30ese235597 2.0 10171476
16:00+29e225998 4.6 1017948
19:00+24ene3685100 8.9 1018140
22:00+21ene51094100 0.1 1019378